NOAA NWS Hourly Roundups by Site

Regional Weather Roundup for Seattle, WA

To Select Another Site Choose from List

Select Site:  

451
ASUS46 KSEW 170010
RWRWA

WASHINGTON REGIONAL WEATHER ROUNDUP
NATIONAL WEATHER SERVICE SEATTLE WA
500 PM PDT FRI APR 16 2021

NOTE:"FAIR" INDICATES FEW OR NO CLOUDS BELOW 12,000 FEET WITH NO
SIGNIFICANT WEATHER AND/OR OBSTRUCTIONS TO VISIBILITY.

WAZ507-509-555>559-170100-
SEATTLE, TACOMA, EVERETT, AND VICINITY

CITY           SKY/WX    TMP DP  RH WIND       PRES   REMARKS
EVERETT        SUNNY     70  40  33 N12       30.18F
6HR MIN TEMP:  63; 6HR MAX TEMP:  71;

BOEING FIELD   SUNNY     75  30  19 NW12      30.14F
6HR MIN TEMP:  62; 6HR MAX TEMP:  76;

RENTON         SUNNY     75  38  26 NW14      30.13F
6HR MIN TEMP:  62; 6HR MAX TEMP:  77;

SEATAC AIRPORT SUNNY     78  36  21 N12       30.15F
6HR MIN TEMP:  68; 6HR MAX TEMP:  79;

JBLM-MCCHORD   SUNNY     77  35  22 NE15      30.13F
6HR MIN TEMP:  67; 6HR MAX TEMP:  78;

PUYALLUP       FAIR      79  32  18 NW10G16   30.13F
BREMERTON      SUNNY     77  34  21 NE9G16    30.16F
6HR MIN TEMP:  69; 6HR MAX TEMP:  78;

JBLM-FT LEWIS  SUNNY     78  34  20 NW9       30.12F
6HR MIN TEMP:  65; 6HR MAX TEMP:  79;

TACOMA NARROWS SUNNY     74  31  20 N15       30.14F
6HR MIN TEMP:  62; 6HR MAX TEMP:  75;

$$

WAZ001-503-506-510-514-515-170100-
NORTH INTERIOR

CITY           SKY/WX    TMP DP  RH WIND       PRES   REMARKS
BELLINGHAM     SUNNY     72  39  30 NW8       30.18F
6HR MIN TEMP:  65; 6HR MAX TEMP:  73;

FRIDAY HARBOR  SUNNY     70  36  28 N8        30.20F
6HR MIN TEMP:  62; 6HR MAX TEMP:  71;

EASTSOUND      SUNNY     63  37  39 NW5       30.19F
PORT ANGELES   SUNNY     70  34  26 E7        30.20F
6HR MIN TEMP:  60; 6HR MAX TEMP:  70;

EDIZ HOOK      FAIR      60  39  45 SE5       30.20F
6HR MIN TEMP:  54; 6HR MAX TEMP:  61;

PORT TOWNSEND  FAIR      70  34  26 VRB7      30.18F
NAS WHIDBEY    SUNNY     62  43  49 W6        30.23F
6HR MIN TEMP:  56; 6HR MAX TEMP:  62;

ARLINGTON      SUNNY     72  44  36 NW14      30.17F
6HR MIN TEMP:  64; 6HR MAX TEMP:  73;

BURLINGTON     SUNNY     72  41  33 W12       30.18F
$$

WAZ020-022-039-040-504-511-512-170100-
SOUTHWEST INTERIOR

CITY           SKY/WX    TMP DP  RH WIND       PRES   REMARKS
SHELTON        SUNNY     79  30  16 NE12G21   30.12F
6HR MIN TEMP:  67; 6HR MAX TEMP:  80;

OLYMPIA        SUNNY     78  29  16 NE8       30.13F
6HR MIN TEMP:  63; 6HR MAX TEMP:  79;

CHEHALIS       FAIR      77  39  25 VRB7G17   30.12F
KELSO          SUNNY     82  35  18 SW5       30.09F
6HR MIN TEMP:  66; 6HR MAX TEMP:  82;

VANCOUVER      SUNNY     78  28  16 SE10      30.09F
6HR MIN TEMP:  67; 6HR MAX TEMP:  79;

SCAPPOOSE, OR  SUNNY     80  28  15 E14G22    30.08F
6HR MIN TEMP:  70; 6HR MAX TEMP:  81;

PORTLAND, OR   SUNNY     78  27  15 E17G24    30.09F
6HR MIN TEMP:  65; 6HR MAX TEMP:  79;

$$

WAZ021-516-517-170100-
WASHINGTON COAST

CITY           SKY/WX    TMP DP  RH WIND       PRES   REMARKS
FORKS          SUNNY     79  34  19 NW12      30.14F
6HR MIN TEMP:  71; 6HR MAX TEMP:  80;

HOQUIAM        SUNNY     73  45  36 W9        30.12F
6HR MIN TEMP:  64; 6HR MAX TEMP:  79;

ASTORIA, OR    SUNNY     73  41  31 NW14      30.09F
6HR MIN TEMP:  67; 6HR MAX TEMP:  79;

$$

WAZ019-023-024-040-567>569-170100-
CASCADE MOUNTAINS AND COLUMBIA GORGE

CITY           SKY/WX    TMP DP  RH WIND       PRES   REMARKS
STAMPEDE PASS  SUNNY     59  24  26 VRB3      30.26F
6HR MIN TEMP:  52; 6HR MAX TEMP:  61;

TROUTDALE, OR  SUNNY     79  26  14 NE15G22   30.10F
6HR MIN TEMP:  67; 6HR MAX TEMP:  79;

HOOD RIVER, OR CLEAR     75  23  14 MISG      30.15S
THE DALLES, OR SUNNY     77  24  14 E14G24    30.13F
6HR MIN TEMP:  61; 6HR MAX TEMP:  78;

$$

WAZ026-027-041>044-520-521-170100-
EAST SLOPES

CITY           SKY/WX    TMP DP  RH WIND       PRES   REMARKS
OMAK           SUNNY     75  28  17 SW3       30.20F
6HR MIN TEMP:  62; 6HR MAX TEMP:  76;

WENATCHEE      SUNNY     71  26  18 W7        30.20F
6HR MIN TEMP:  58; 6HR MAX TEMP:  72;

ELLENSBURG     SUNNY     73  23  15 N6        30.20F
6HR MIN TEMP:  63; 6HR MAX TEMP:  75;

YAKIMA         SUNNY     75  21  13 NE14G29   30.19F
6HR MIN TEMP:  67; 6HR MAX TEMP:  76;

SUNNYSIDE ARPT CLEAR     76  16  10 NE17G23   30.17
6HR MIN TEMP:  66; 6HR MAX TEMP:  76;

YAKIMA TC      FAIR      72  19  14 NE13      30.18F
6HR MIN TEMP:  65; 6HR MAX TEMP:  73;

$$

WAZ028-034-035-170100-
COLUMBIA BASIN

CITY           SKY/WX    TMP DP  RH WIND       PRES   REMARKS
EPHRATA        SUNNY     75  21  13 NE6       30.20F
6HR MIN TEMP:  67; 6HR MAX TEMP:  75;

MOSES LAKE     SUNNY     78  18  10 NE15      30.20F
6HR MIN TEMP:  70; 6HR MAX TEMP:  78;

PASCO          SUNNY     78  19  11 E15       30.15F
6HR MIN TEMP:  67; 6HR MAX TEMP:  79;

RICHLAND ARPT  CLEAR     77  21  12 N15G21    30.16
6HR MIN TEMP:  70; 6HR MAX TEMP:  78;

HERMISTON, OR  SUNNY     75  24  15 NE14G24   30.14F
$$

WAZ036>038-170100-
NORTHEAST WASHINGTON

CITY           SKY/WX    TMP DP  RH WIND       PRES   REMARKS
SPOKANE GEIGER SUNNY     68  18  14 NE13      30.22S
6HR MIN TEMP:  59; 6HR MAX TEMP:  69;

SPOKANE FELTS  SUNNY     71  20  14 NE3G16    30.21F
6HR MIN TEMP:  62; 6HR MAX TEMP:  72;

FAIRCHILD AFB  SUNNY     68  20  16 E10       30.22F
6HR MIN TEMP:  60; 6HR MAX TEMP:  69;

COEURDALENE,ID SUNNY     67  23  19 N13       30.22F
6HR MIN TEMP:  59; 6HR MAX TEMP:  68;

DEER PARK      SUNNY     69  20  15 E10G20    30.21F
6HR MIN TEMP:  62; 6HR MAX TEMP:  71;

$$

WAZ029>033-170100-
SOUTHEAST WASHINGTON

CITY           SKY/WX    TMP DP  RH WIND       PRES   REMARKS
PULLMAN        SUNNY     67  21  17 N3        30.21F
6HR MIN TEMP:  59; 6HR MAX TEMP:  67;

LEWISTON, ID   SUNNY     72  21  14 E8        30.17F
6HR MIN TEMP:  63; 6HR MAX TEMP:  72;

WALLA WALLA    SUNNY     71  25  17 NE26G35   30.12F
6HR MIN TEMP:  62; 6HR MAX TEMP:  72;

PENDLETON, OR  SUNNY     70  26  19 N15G22    30.15F
6HR MIN TEMP:  65; 6HR MAX TEMP:  72;

$$



 

View Past Reports for Seattle, WA.

Products Courtesy of NOAA-NWS
NWS Information Parsing Script by Ken True at Saratoga Weather - Script by SE Lincoln Weather.